Regional Weather Roundup
Issued by NWS New Orleans/Baton Rouge, LA

Home | Current Version | Previous Version | Text Only | Print | Product List | Glossary On
Versions: 1 2 3 4 5 6 7 8 9 10 11 12 13 14 15 16 17 18 19 20 21 22 23 24 25 26
000
ASUS44 KLIX 211213
RWRLIX
NEW ORLEANS REGIONAL WEATHER ROUNDUP
NATIONAL WEATHER SERVICE NEW ORLEANS LA
700 AM CDT FRI JUL 21 2017

NOTE: "FAIR" INDICATES FEW OR NO CLOUDS BELOW 12,000 FEET WITH NO
      SIGNIFICANT WEATHER AND/OR OBSTRUCTIONS TO VISIBILITY.
      SKY/WX - SKY CONDITION AND SIGNIFICANT WEATHER.
      TMP - AIR TEMPERATURE.     DP    - DEWPOINT TEMPERATURE.
      RH  - RELATIVE HUMIDITY.   PRES  - PRESSURE.
      HI  - HEAT INDEX.          WCI   - WIND CHILL INDEX.

*  THESE STATIONS ARE NOT NWS OR FAA STATIONS AND ARE NOT UNDER
   NWS QUALITY CONTROL.

LAZ038-040-048-061>063-065>067-069-211300-
SOUTHEAST LOUISIANA

CITY           SKY/WX    TMP DP  RH WIND       PRES   REMARKS
N.O. INTL ARPT MOCLDY    78  76  93 W6        30.04R
6HR MIN TEMP:  77; 6HR MAX TEMP:  79;

N.O. LAKEFRONT CLEAR     85  78  80 NW9       30.04R HX  96
6HR MIN TEMP:  84; 6HR MAX TEMP:  85;

N.O. DOWNTOWN*   N/A     84  77  79 CALM        N/A
6HR MIN TEMP:  83; 6HR MAX TEMP:  85;

RESERVE*         N/A     78  75  92 CALM      30.05R FOG
6HR MIN TEMP:  78; 6HR MAX TEMP:  80;

SLIDELL        PTCLDY    79  75  87 CALM      30.04R
6HR MIN TEMP:  78; 6HR MAX TEMP:  83;

BATON ROUGE    CLEAR     78  75  90 CALM      30.05R
6HR MIN TEMP:  77; 6HR MAX TEMP:  80;

BOOTHVILLE     CLOUDY    82  78  88 NE9       30.05
6HR MIN TEMP:  81; 6HR MAX TEMP:  85;

BELLE CHASSE   NOT AVBL
BOGALUSA*        N/A     77  74  88 CALM      30.07R
6HR MIN TEMP:  77; 6HR MAX TEMP:  80;

GALLIANO*      CLOUDY    76  72  88 CALM      30.04R
6HR MIN TEMP:  74; 6HR MAX TEMP:  78;

NEW ROADS*       N/A     76  74  95 CALM      30.05R
6HR MIN TEMP:  75; 6HR MAX TEMP:  78;

GONZALES*        N/A     75  75  98 CALM      30.04R
6HR MIN TEMP:  75; 6HR MAX TEMP:  77;

HAMMOND*       PTCLDY    77  72  83 CALM      30.04R
HOUMA*         CLEAR     75  73  94 CALM      30.05R
PORT FOURCHON* SUNNY     82  79  89 N5          N/A

$$

MSZ070-080>082-211300-
SOUTHERN MISSISSIPPI

CITY           SKY/WX    TMP DP  RH WIND       PRES   REMARKS
MCCOMB         CLOUDY    76  73  91 CALM      30.06R
6HR MIN TEMP:  75; 6HR MAX TEMP:  79;

GULFPORT       CLOUDY    79  77  94 W5        30.03R
6HR MIN TEMP:  79; 6HR MAX TEMP:  81;

BILOXI         CLOUDY    82  77  85 CALM      30.03R
6HR MIN TEMP:  80; 6HR MAX TEMP:  83;

PASCAGOULA     SUNNY     79  76  90 CALM      30.04R
6HR MIN TEMP:  77; 6HR MAX TEMP:  80;

STENNIS ARPT*  PTCLDY    77  75  94 CALM      30.04

$$

COASTAL OBSERVATIONS
LAKE AND NEARSHORE STATIONS

STATION/POSITION TIME  TEMP    WIND        PRES    WAVE
                       AIR SEA DIR/SP/G            HT/PER
                 (UTC) (F)     (DEG/KT/KT) (MB)    (FT/S)
PASCAGOULA       1148   80     330/  5/  5 1016.6
WAVELAND YACHT   1148   81 90  230/  2/  4 1017.1
GRAND ISLE       1148   83 88  330/  5/  6 1017.1
SOUTHWEST PASS   1148   85     320/  6/  9   N/A
NEW CANAL        1148   85 88  300/  3/  5 1017.0
SHELL BEACH      1148   80 89  120/ 12/ 18 1017.7

OFFSHORE STATIONS

STATION/POSITION TIME  TEMP    WIND        PRES    WAVE
                       AIR SEA DIR/SP/G            HT/PER
                 (UTC) (F)     (DEG/KT/KT) (MB)    (FT/S)
64 S DAUPHIN ISL 1150   84 85  270/  6/  8 1016.8    1

$$





USA.gov is the U.S. government's official web portal to all federal, state and local government web resources and services.